KC9QFH Weather Reports


time (UTC)temp
F
wind
direction
speed
knots
gust
knots
rain 1hr
in
rain 24hr
in
rain mn
in
humidity
%
barometer
mb
20260906163112 74 48 4.3 8.7 0.00 0.00 0.00 72 1021.9
20260906161611 74 139 4.3 8.7 0.00 0.00 0.00 74 1021.9
20260906160105 73 98 4.3 7.8 0.00 0.00 0.00 75 1021.8
20260906154602 73 46 4.3 7.0 0.00 0.00 0.00 75 1021.9
20260906153115 73 106 3.5 10.4 0.00 0.00 0.00 77 1021.8
20260906151608 72 82 4.3 7.0 0.00 0.00 0.00 78 1021.9
20260906150107 71 127 3.5 7.0 0.00 0.00 0.00 80 1021.7
20260906144621 71 51 3.5 8.7 0.00 0.00 0.00 81 1021.6
20260906143116 70 89 3.5 7.0 0.00 0.00 0.00 81 1021.6
20260906141606 69 86 1.7 5.2 0.00 0.00 0.00 84 1021.7
20260906140119 69 55 0.9 2.6 0.00 0.00 0.00 84 1021.7
20260906134618 66 346 1.7 3.5 0.00 0.00 0.00 89 1021.8
20260906133119 65 27 1.7 3.5 0.00 0.00 0.00 91 1021.6
20260906131603 63 20 1.7 4.3 0.00 0.00 0.00 91 1021.6
20260906130113 63 39 2.6 4.3 0.00 0.00 0.00 92 1021.4
20260906124612 61 37 1.7 2.6 0.00 0.00 0.00 93 1021.3
20260906123104 61 1 1.7 2.6 0.00 0.00 0.00 93 1021.2
20260906121618 60 349 2.6 3.5 0.00 0.00 0.00 94 1020.9
20260906120104 59 1 3.5 4.3 0.00 0.00 0.00 94 1020.9
20260906114619 59 328 1.7 2.6 0.00 0.00 0.00 94 1020.8
20260906113114 59 339 1.7 1.7 0.00 0.00 0.00 93 1020.3
20260906111603 59 354 0.9 2.6 0.00 0.00 0.00 93 1020.2
20260906110106 59 358 2.6 3.5 0.00 0.00 0.00 93 1019.9
20260906104605 59 345 2.6 3.5 0.00 0.00 0.00 93 1020.0
20260906103114 59 328 1.7 1.7 0.00 0.00 0.00 93 1020.1
20260906101605 59 353 2.6 3.5 0.00 0.00 0.00 92 1020.1
20260906100101 59 321 1.7 2.6 0.00 0.00 0.00 92 1020.2
20260906094605 59 307 1.7 2.6 0.00 0.00 0.00 91 1020.0
20260906093108 60 344 2.6 2.6 0.00 0.00 0.00 92 1019.8
20260906091614 60 1 2.6 4.3 0.00 0.00 0.00 91 1019.9
20260906090111 60 334 2.6 3.5 0.00 0.00 0.00 91 1019.7
20260906084607 60 333 2.6 3.5 0.00 0.00 0.00 91 1019.9
20260906083107 60 320 1.7 2.6 0.00 0.00 0.00 90 1019.8
20260906081606 60 336 2.6 4.3 0.00 0.00 0.00 90 1019.7
20260906080111 60 6 3.5 4.3 0.00 0.00 0.00 90 1019.6
20260906074602 61 345 3.5 4.3 0.00 0.00 0.00 89 1019.8
20260906073105 61 335 2.6 3.5 0.00 0.00 0.00 89 1019.9
20260906071616 61 328 2.6 3.5 0.00 0.00 0.00 90 1019.9
20260906070106 60 311 1.7 2.6 0.00 0.00 0.00 91 1019.8
20260906064606 60 343 0.9 1.7 0.00 0.00 0.00 92 1019.8
20260906063105 61 343 1.7 1.7 0.00 0.00 0.00 92 1019.6
20260906061606 61 322 0.9 0.9 0.00 0.00 0.00 93 1019.7
20260906060155 61 322 0.0 0.9 0.00 0.00 0.00 93 1019.5
20260906054616 61 322 0.9 1.7 0.00 0.00 0.00 93 1019.6
20260906053105 61 322 0.9 1.7 0.00 0.00 0.00 93 1019.4
20260906051606 61 351 0.9 1.7 0.00 0.00 0.00 91 1019.2
20260906050116 63 352 1.7 1.7 0.00 0.00 0.00 90 1019.0
20260906044606 63 352 0.9 3.5 0.00 0.00 0.00 90 1019.1
20260906043110 64 18 1.7 3.5 0.00 0.00 0.00 90 1019.0
20260906041611 62 6 0.9 1.7 0.00 0.00 0.00 92 1018.9
20260906040109 62 330 0.0 1.7 0.00 0.00 0.00 91 1019.0
20260906034608 63 346 0.9 1.7 0.00 0.00 0.00 91 1019.0
20260906033111 63 346 0.9 0.9 0.00 0.00 0.00 89 1018.8
20260906031630 65 346 0.9 1.7 0.00 0.00 0.00 86 1018.7
20260906030109 66 55 1.7 4.3 0.00 0.00 0.00 82 1018.6
20260906024607 66 4 2.6 5.2 0.00 0.00 0.00 84 1018.6
20260906023113 66 41 0.9 1.7 0.00 0.00 0.00 87 1018.5
20260906021612 66 359 0.9 2.6 0.00 0.00 0.00 86 1018.5
20260906020106 67 1 0.9 2.6 0.00 0.00 0.00 85 1018.5
20260906014609 67 32 1.7 4.3 0.00 0.00 0.00 84 1018.4
20260906013100 68 42 1.7 5.2 0.00 0.00 0.00 83 1018.4
20260906011615 68 47 2.6 4.3 0.00 0.00 0.00 83 1018.5
20260906010114 69 350 2.6 4.3 0.00 0.00 0.00 82 1018.3
20260906004608 69 350 0.9 2.6 0.00 0.00 0.00 82 1018.2
20260906003101 70 5 2.6 3.5 0.00 0.00 0.00 79 1018.1
20260906001611 71 4 2.6 4.3 0.00 0.00 0.00 78 1018.2
20260906000110 72 338 2.6 4.3 0.00 0.00 0.00 77 1018.3
20260905234602 73 349 3.5 6.1 0.00 0.00 0.00 75 1018.3
20260905233106 74 2 3.5 6.1 0.00 0.00 0.00 74 1018.5
20260905231619 74 359 5.2 9.6 0.00 0.00 0.00 73 1018.7
20260905230113 75 3 4.3 8.7 0.00 0.00 0.00 74 1018.7
20260905224609 75 20 4.3 9.6 0.00 0.00 0.00 75 1018.3
20260905223106 75 15 7.0 10.4 0.00 0.00 0.00 75 1017.9
20260905221631 74 72 3.5 7.0 0.00 0.00 0.00 77 1017.9
20260905220103 74 51 4.3 7.8 0.00 0.00 0.00 79 1018.0
20260905214609 74 21 3.5 7.8 0.00 0.00 0.00 79 1017.9
20260905213106 73 28 3.5 5.2 0.00 0.00 0.00 81 1017.9
20260905211605 73 1 2.6 5.2 0.00 0.00 0.00 82 1018.1
20260905210111 73 321 1.7 3.5 0.00 0.00 0.00 82 1018.1
20260905204612 74 299 1.7 3.5 0.00 0.00 0.00 81 1018.1
20260905203104 74 340 4.3 7.0 0.00 0.00 0.00 80 1018.1
20260905201607 74 21 2.6 7.8 0.00 0.00 0.00 82 1018.1
20260905200131 73 295 6.1 9.6 0.00 0.00 0.00 84 1018.1
20260905194607 73 23 7.0 11.3 0.00 0.00 0.00 82 1018.1
20260905193104 73 6 6.1 10.4 0.00 0.00 0.00 82 1018.3
20260905191603 73 358 8.7 10.4 0.00 0.00 0.00 82 1018.2
20260905190104 73 339 7.8 12.2 0.00 0.00 0.00 82 1018.1
20260905184612 73 336 7.8 11.3 0.00 0.00 0.00 84 1018.2
20260905183107 73 337 7.0 10.4 0.00 0.00 0.00 84 1018.3
20260905181603 72 354 7.0 10.4 0.00 0.00 0.00 84 1018.2
20260905180114 72 347 3.5 8.7 0.00 0.00 0.00 85 1018.2
20260905174602 72 2 7.0 10.4 0.00 0.00 0.00 85 1018.1
20260905173132 72 1 5.2 8.7 0.00 0.00 0.00 85 1017.9
20260905171603 71 16 8.7 11.3 0.00 0.00 0.00 86 1018.1
20260905170119 72 12 3.5 8.7 0.00 0.00 0.00 85 1018.3
20260905164625 71 18 5.2 9.6 0.00 0.00 0.00 86 1018.6